Regional Weather Roundup
Issued by NWS

Home | Current Version | Previous Version | Graphics & Text | Print | Product List | Glossary On
Versions: 1 2 3 4 5 6 7 8 9 10 11 12 13 14 15 16 17 18 19 20 21 22 23 24 25 26 27 28 29 30 31 32 33 34 35 36 37 38 39 40 41 42 43 44 45 46 47 48 49 50
000
ASUS45 KSLC 230310
RWRUT

UTAH REGIONAL WEATHER ROUNDUP
NATIONAL WEATHER SERVICE SALT LAKE CITY UT
800 PM MST SAT NOV 22 2014

UTZ001>011-023>025-230400-

NORTHERN UTAH

CITY           SKY/WX    TMP DP  RH WIND       PRES   REMARKS
BRIGHAM CITY   CLOUDY    37  32  84 W3        29.88R
HILL AFB       CLOUDY    35  35  99 S8        29.88R WCI  29
LOGAN          PTCLDY    36  32  85 E6        29.84R WCI  31
OGDEN          CLOUDY    36  35  96 S7        29.87R WCI  30
PROVO AIRPORT  MOCLDY    36  34  93 E10       29.89R WCI  28
SALT LAKE CITY CLOUDY    36  34  92 CALM      29.87R
VERNAL         LGT SNOW  33  32  96 E5        29.80R FOG     WCI  29
WENDOVER       MOCLDY    41  28  60 W23G29    29.91R
HEBER CITY     CLOUDY    34  32  93 W7        29.85R WCI  28
WEST JORDAN    CLOUDY    34  34 100 N5        29.87S WCI  30

$$

UTZ012>022-026-027-230400-

SOUTHERN/CENTRAL UTAH

CITY           SKY/WX    TMP DP  RH WIND       PRES   REMARKS
BLANDING       PTCLDY    35  24  62 CALM      29.93F
BRYCE CANYON   CLOUDY    40  19  43 W13G23    29.91R WCI  32
CEDAR CITY     CLOUDY    45  22  40 NW16      29.89R
DELTA          CLOUDY    36  35  96 N6        29.92R WCI  31
MILFORD        MOCLDY    43  24  47 SE7       29.87R
MOAB/CYNLANDS  CLOUDY    40  31  70 NE7       29.77R
PRICE          LGT SNOW  32  30  92 W10       29.85R FOG     WCI  24
ST GEORGE      CLOUDY    52  21  30 CALM      29.89S
KANAB          CLEAR     48  21  34 SW8       29.93F

$$

REGIONAL REPORTS     COLORADO/ARIZONA

CITY           SKY/WX    TMP DP  RH WIND       PRES   REMARKS
CRAIG, CO      CLOUDY    40  28  62 W17       29.73S WCI  31
GRAND JUNCTION CLOUDY    35  33  92 N3        29.80R
RIFLE          LGT RAIN  35  33  92 CALM      29.79F
MONTROSE       CLOUDY    40  28  62 W6        29.81F
CORTEZ         CLOUDY    36  24  62 CALM      29.87F
PAGE, AZ       NOT AVBL
GRAND CANYON   CLEAR     42  17  36 SW15      29.99F
KINGMAN        CLEAR     49  21  33 E7        29.95F
FLAGSTAFF      CLEAR     36  15  42 CALM      30.04R

$$

REGIONAL REPORTS    NEVADA/IDAHO/WYOMING

CITY           SKY/WX    TMP DP  RH WIND       PRES   REMARKS
LAS VEGAS, NV  CLEAR     62  30  29 CALM      29.81F
ELY            CLOUDY    36 N/A N/A NW7       30.00R WCI  30
ELKO           MOCLDY    35  32  88 W16G23    30.00R WCI  25
POCATELLO, ID  MOCLDY    34  31  88 S16       29.82R WCI  24
BURLEY         LGT RAIN  37  30  75 W22G29    29.84R WCI  26
EVANSTON, WY   CLOUDY    28  26  92 SW20      29.78S WCI  15
ROCK SPRINGS   CLOUDY    32  25  75 SW26G36   29.70F WCI  18
KEMMERER       LGT SNOW  28  28 100 W13       29.78R WCI  18

$$


USA.gov is the U.S. government's official web portal to all federal, state and local government web resources and services.